Location: Albuquerque Trailhead
(34.7934°N, 106.3736°W)
Time: 22:55:53
(UTC+00:00)

NOAA 19 - Pass Details

Date: 10 April 2023
Orbit: 840 x 859 km, 99.1° (Epoch: 28 May)

Event Time Altitude Azimuth Distance (km) Brightness Sun altitude
Exits shadow 02:59:17 16° 162° (SSE) 2,087 6.9 -17.8°
Maximum altitude 03:03:47 83° 75° (ENE) 852 5.1 -18.6°
Drops below altitude 10° 03:09:15 10° 348° (NNW) 2,464 8.1 -19.6°
Sets 03:11:37 0° 348° (NNW) 3,401 8.9 -20.1°
